[Date Prev][Date Next][Thread Prev][Thread Next][Date Index][Thread Index]

[jamsat-news:1171] jas2info #160



========================   ºÇ¿·¾ðÊó   ==============================

        Last updated ¡§Fri.29-Oct.-1999 18:30 (JST) #160

====================================================================
   
     ±ÒÀ±¾ðÊ󡡣ƣϥ·¥ê¡¼¥º¤Îµ°Æ»Í×ÁÇ¡¢¥Æ¥ì¥á¥È¥ê¡¢£Ñ£Ó£Ï¤Î¾õ¶·Åù¤ò
   ¤Þ¤È¤á¤Æ¤ß¤Þ¤·¤¿¡¥
         
 ¢£ µ°Æ»Í×ÁÇ£±¡§¡Öjamsat¡Ýkeps¡§£¹£³£´¡×¤è¤ê¡¡
              SB KEPS @ AMSAT  $ORB99302.N
¡¡¡¡¡¡¡¡¡¡¡¡¡¡2Line Orbital Elements 99302.AMSAT

¡¡HR AMSAT ORBITAL ELEMENTS FOR AMATEUR SATELLITES IN NASA FORMAT
¡¡FROM WA5QGD FORT WORTH,TX October 29, 1999
¡¡SEND SUBSCRIBE/UNSUBSCRIBE TO majordomo@amsat.org ONLY
¡¡BID: ORB99302.N

¡¡DECODE 2-LINE ELSETS WITH THE FOLLOWING KEY:
¡¡1 AAAAAU 00  0  0 BBBBB.BBBBBBBB  .CCCCCCCC  00000-0  00000-0 0  DDDZ
¡¡2 AAAAA EEE.EEEE FFF.FFFF GGGGGGG HHH.HHHH III.IIII JJ.JJJJJJJJKKKKKZ
¡¡KEY: A-CATALOGNUM B-EPOCHTIME C-DECAY D-ELSETNUM E-INCLINATION F-RAAN
¡¡G-ECCENTRICITY H-ARGPERIGEE I-MNANOM J-MNMOTION K-ORBITNUM Z-CHECKSUM

¡¡TO ALL RADIO AMATEURS BT
 
¡¡¡¡FO-29
¡¡¡¡1 24278U 96046B   99300.83362042 -.00000083  00000-0 -51388-4 0 02970
¡¡¡¡2 24278 098.5759 234.3402 0352395 110.8234 253.1029 13.52681423157743
¡¡
 ¢£ µ°Æ»Í×ÁÇ£²¡§¡Öjamsat¡Ýkeps¡§£¹£³£µ¡×¤è¤ê
                         
¡¡¡¡¡¡¡¡¡¡¡¡¡¡¡¡¡¡SB KEPS @ AMSAT  $ORB99302.O
¡¡¡¡¡¡¡¡¡¡¡¡¡¡¡¡¡¡Orbital Elements  99302.OSCAR

¡¡¡¡HR AMSAT ORBITAL ELEMENTS FOR OSCAR SATELLITES
¡¡¡¡FROM WA5QGD FORT WORTH,TX October 29, 1999
¡¡¡¡SEND SUBSCRIBE/UNSUBSCRIBE TO majordomo@amsat.org ONLY
¡¡¡¡BID: ORB99302.O
¡¡¡¡TO ALL RADIO AMATEURS BT

  Satellite: FO-29
¡¡Catalog number: 24278
¡¡Epoch time:      99300.83362042
¡¡Element set:    0297
¡¡Inclination:      098.5759 deg
¡¡RA of node:       234.3402 deg
¡¡Eccentricity:    0.0352395
¡¡Arg of perigee:   110.8234 deg
¡¡Mean anomaly:     253.1029 deg
¡¡Mean motion:   13.52681423 rev/day
¡¡Decay rate:       -8.3e-07 rev/day^2
¡¡Epoch rev:           15774
¡¡Checksum:              312
¡¡
 --------------------------¡¡¡¡FO-29¡ÊJAS-2)¡¡QSO¤Ë´Ø¤¹¤ë¾ðÊó¡¡¡¡------------------------
¡¡
¡¡¡¡[jamsat:bb4718]¤Ë¡¡7K4IIN¶É¡¡ÃæÅç¡¡¾»°ì»á¤¬FO¡¾29¡¢FO-20¤Î¥¢¥Ê¥í¥°¥â¡¼¥ÉQSO¤Ë¤Ä¤¤¤Æ¤Î
¡¡µ­»ö¤¬Åê¹Æ¤µ¤ì¤Æ¤¤¤Þ¤·¤¿¤Î¤ÇžºÜ¤µ¤»¤Æ夭¤Þ¤·¤¿.

¡¡7K4iiN@ÆüΩ»Ô¤ÎÃæÅç¤Ç¤¹¡¥
¡¡¢£¢£¢£Äãµ°Æ»¥¢¥Ê¥í¥°±ÒÀ±¤Ë½Ð¤Þ¤»¤ó¤«¡©¢£¢£¢£

¡¡¡¡º£Ç¯¤ËÆþ¤Ã¤Æ¡¢FO-20, 29¤Î¼õ¿®¾Ú¤¬»þ¡¹ÆϤ¯Íͤˤʤê¤Þ¤·¤¿¡¥
¡¡¥á¡¼¥ë¤Ê¤É¤Ç¤â¼õ¿®¤ÎÊó¹ð¤ò¤¤¤¯¤Ä¤«¤¤¤¿¤À¤¤¤Æ¤¤¤Þ¤¹¡¥
¡¡ÃΤé¤Ê¤¤Êý¤«¤éÅÅÏäǼõ¿®À®¸ù¤Î´¶Æ°¤ò¤ªÊ¹¤«¤»¤¤¤¿¤À¤¯¤³¤È¤â¤¢¤ê¤Þ¤·¤¿¡¥
¡¡¤É¤Î¼õ¿®¾Ú¤â¼Â¤ÏÁ÷¿®ÀßÈ÷¤Þ¤Ç´°È÷¤µ¤ì¤Æ¤¤¤ëÊý¤«¤é¤Ç¡¢¤³¤ì¤«¤é±ÒÀ±ÄÌ¿®¤Ë
¡¡Ä©À蘆¤ì¤ëÊý¤¬¡Ê¤Þ¤À¤Þ¤À¡ËÂô»³¤¤¤é¤Ã¤·¤ã¤ë¤è¤¦¤Ç¤¹¡¥
¡¡¡¡¥¢¥Þ¥Á¥å¥¢±ÒÀ±ÄÌ¿®¤Î¼ê»Ï¤á¤È¤·¤Æ¥¢¥Ê¥í¥°¥â¡¼¥É¤ÏÆëÀ÷¤ß¤ä¤¹¤¤¤È»×¤¤¤Þ¤¹¡¥
¡¡¼õ¿®¾Ú¤ò¤¤¤¿¤À¤¤¤¿Êý¡¹¤È¤â¶á¡¹¸ò¿®¤Ç¤­¤ë¤Î¤ò¡¢³Ú¤·¤ß¤Ë¤·¤Æ¤ª¤ê¤Þ¤¹¡¥
¡¡¤ª¤«¤²¤µ¤Þ¤Ç¡¢¾®À¸¤â³§ÍͤȤθò¿®¤ò½Å¤Í¤ë¤³¤È¤Ç¡¢±ÒÀ±¤Ë¤Þ¤Ä¤ï¤ëAWARD¤ò
¡¡¤¤¤¯¤Ä¤«¼ê¤ËÆþ¤ì¤Þ¤·¤¿¡¥
¡¡°ìÊý¤ÇºÇ¶á¡¢¾¯¤·Äãµ°Æ»¥¢¥Ê¥í¥°±ÒÀ±¤¬ÀŤ«¤Ê¤è¤¦¤Ë´¶¤¸¤Þ¤¹¡¥
¡¡À¸°Õµ¤¤È¤Ï»×¤¤¤Þ¤¹¤¬¿·¤¿¤Ë±ÒÀ±¤ËÄ©À蘆¤ì¤Æ¤¤¤ëÊý¡¹¤Î°Ù¤Ë¤â
¡¡ºÆ¤ÓÆø¤ä¤«¤Ë¤Ê¤ì¤Ð¤Ê¤¡¤È´¶¤¸¤ë¼¡Âè¤Ç¤¹¡¥
¡¡¡¡º£¸å¤È¤â³§Í͵¹¤·¤¯¤ª´ê¤¤¤·¤Þ¤¹¡¥
--`` `  --``` -`- ````- `` `` -`  --with Mac PowerBook
de 7K4iiN ; Inside Island Network
Shouichi Nakashima  ÃæÅç ¾»°ì, E-mail; jim@jsdi.or.jp
 7k4iin@jamsat.or.jp   URL;http://www.jsdi.or.jp/~tina88/7k4iin/
    ----- Office---E-mail; snakashi@hrl.hitachi.co.jp
  TKS es CUAGN ----  ........ --... ...--  - ..- ..

  ---------------   FO-20(JAS-1b)¡¡-----------------------
-----------------------    FO-20¡ÊJAS-£±£â¡ËÆ»Í×ÁÇ   -------------------------------
 
 ¢£ µ°Æ»Í×ÁÇ£± ¡§½Ðŵ¤ÏFO-29¡Ö¤Õ¤¸£³¹æ¡×¤ËƱ¤¸¡¥
  
  FO-20
¡¡1 20480U 90013C   99301.03240549  .00000013  00000-0  10587-3 0 02054
¡¡2 20480 099.0200 110.4668 0540325 223.4014 132.3329 12.83257810455371
 
 ¢£ µ°Æ»Í×ÁÇ£² ¡§½Ðŵ¤ÏFO-29¡Ö¤Õ¤¸£³¹æ¡×¤ËƱ¤¸¡¥
               
  Satellite: FO-20
¡¡Catalog number: 20480
¡¡Epoch time:      99301.03240549
¡¡Element set:    0205
¡¡Inclination:      099.0200 deg
¡¡RA of node:       110.4668 deg
¡¡Eccentricity:    0.0540325
¡¡Arg of perigee:   223.4014 deg
¡¡Mean anomaly:     132.3329 deg
¡¡Mean motion:   12.83257810 rev/day
¡¡Decay rate:        1.3e-07 rev/day^2
¡¡Epoch rev:           45537
¡¡Checksum:              252
¡¡¡¡
 ==================================================================================

 £µ¡Ë£Ê£Á£Ò£Ì ¤Î¥Û¡¼¥à¥Ú¡¼¥¸¤Ë±¿ÍÑͽÄ꤬µ­ºÜ¤µ¤ì¤Æ¤¤¤Þ¤·¤¿¤Î¤Ç¤´¾Ò²ð¤·¤Þ¤¹¡¥
       ¡Ê http://www.jarl.or.jp/Japanese/3_Fuji/uy.htm ¡Ë

        ¢£ ¤Õ¤¸£³¹æ¡¿FO¡¼29/JAS-2 ¢£  
  
¡¡¡¡¡ö¡ö¡ö¡¡±¿ÍÑͽÄê¤Ë¤Ä¤¤¤Æ¡¡¡ö¡ö¡ö
¡¡
 ¡¡£±£°·î£³£°Æü¡¡¡Á £±£±·î£°£¸Æü¡¡¡¡¡¡¡¡ ¥Ç¥¸¥È¡¼¥«±¿ÍÑ
¡¡ £±£±·î£°£¹Æü¡¡¡Á £±£±·î£±£°Æü¡¡¡¡¡¡¡¡ ¥¢¥Ê¥í¥°·Ï±¿ÍÑ
¡¡ £±£±·î£±£±Æü¡¡¡Á £±£±·î£²£³Æü¡¡¡¡¡¡¡¡ ¥Ç¥¸¥È¡¼¥«±¿ÍÑ
¡¡ £±£±·î£²£´Æü¡¡¡Á £±£±·î£²£µÆü¡¡¡¡¡¡¡¡ ¥¢¥Ê¥í¥°·Ï±¿ÍÑ
¡¡ £±£±·î£²£¶Æü¡¡¡Á £±£±·î£³£°Æü¡¡¡¡¡¡¡¡ ¥Ç¥¸¥È¡¼¥«±¿ÍÑ¡¡

¡¡¡ö¡§£±£°·î£²£¹Æü¡Ê¶â¡Ë¥¢¥Ã¥×¥í¡¼¥Éºî¶È¤¬´°Î»¤·¤Þ¤·¤¿¤Î¤ÇͽÄê¤ò
¡¡¡¡¡¡ Êѹ¹¤·¤Æ¥¢¥Ê¥í¥°·Ï±¿ÍѤ«¤é¥Ç¥¸¥È¡¼¥«±¿ÍѤȤ¤¤¿¤·¤Þ¤¹¡£

¡¡¢¨¤Ê¤ª¡¤±¿ÍÑͽÄê¤ÏÅÔ¹ç¤Ë¤è¤êÊѹ¹¤¹¤ë¤³¤È¤¬¤¢¤ê¤Þ¤¹¤Î¤Ç¤´Î»¾µ´ê¤¤¤Þ¤¹¡£
¡¡¡¡¡¡¡¡
¡¡¡¡£Ê£Á£Ó¡Ý£²¥Ù¥ê¥«¡¼¥É¤ò´õ˾¤ÎÊý¤Ø
¡¡¡Ö¼õ¿®¥ì¥Ý¡¼¥È¡×¤È½»½ê¡¤»á̾¤òµ­Æþ¤·¤Æ£¸£°±ßÀÚ¼ê¤òŽ¤Ã¤¿ÊÖ¿®ÍÑÉõÅû¤ò²¼µ­¤Î¤È¤³¤í¤Ë¤ªÁ÷¤ê
¡¡¤¯¤À¤µ¤¤¡£
¡¡¡¡¡¡¡¡¡¡¡¡¢©£±£·£°¡Ý£¸£°£·£³¡¡ÅìµþÅÔË­Åç¶èÁã³û£±¡Ý£±£´¡Ý£µ
¡¡¡¡¡¡¡¡¡¡¡¡¡Ê¼Ò¡ËÆüËÜ¥¢¥Þ¥Á¥å¥¢ÌµÀþÏ¢ÌÁ¡¡µ»½Ñ¸¦µæ½êµ»½Ñ²Ý
¡¡¡¡¡¡¡¡¡¡¡¡¡Ö£Ê£Á£Ó¡¼£²¥Ù¥ê¥«¡¼¥É´õ˾¡×¤Èµ­Æþ¤·¤Æ¤¯¤À¤µ¤¤¡£

¡¡¡Ö¼õ¿®¥ì¥Ý¡¼¥È¡×¤Îµ­ÆþÎã
¡¡¡¡£±¡¥Æü»þ¡¡£²¡¥¾ì½ê¡¡£³¡¥¼õ¿®¶¯ÅÙ¡¡£´¡¥Á÷¿®ÆâÍÆ¡¡£µ¡¥»ÈÍѤ·¤¿µ¡¼ï̾¡¡£¶¡¥¥¢¥ó¥Æ¥Ê¡¡£·¡¥¤½¤Î¾
¡¡¡¡¡¡¡Ê¡§¤´°Õ¸«Åù¡Ë
¡¡¡¡Ãí¡Ë£¶¡¥¥¢¥ó¥Æ¥Ê¤Ï¡Ö·¿È֡פǤϤʤ¯¡¤·¿¼°¤òµ­Æþ¤·¤Æ¤¯¤À¤µ¤¤¡£Î㡧¡Ö²¿¥¨¥ì¤ÎȬÌÚ¥¢¥ó¥Æ¥Ê¡×¡¤¡¡
¡¡¡¡¡¡¡¡¡Ö²¿ÃʤΣǣХ¢¥ó¥Æ¥Ê¡×¡¦¡¦¡¦¡£
¡¡¡¡£·¡¥¤´°Õ¸«¡¤¤´´¶ÁÛÅù¤ª½ñ¤­¤¯¤À¤µ¤¤¡£
¡¡¡¡¼õ¿®¥ì¥Ý¡¼¥È¤Î½ñ¼°¤Ï£Á£´ÈǤÎÍÑ»æ¤Ëµ­Æþ¤·¤Æ¤¯¤À¤µ¤¤¡£

¡¡¡¡¥Ç¥¸¥È¡¼¥«¤Î¼þÇÈ¿ô¤Ï£´£³£µ¡¥£¹£±£Í£È£ú¤Ç¤¹¡£¥Ï¥ó¥Ç¥£¡¼µ¡¤Ç¤Î¼õ¿®¤â²Äǽ¤Ç¤¹¤Î¤ÇÀ§Èó¥È¥é¥¤¤·¤Æ
¡¡¤¯¤À¤µ¤¤¡£

¡¡¢¨¼õ¿®ÊýË¡¤Ï£Ê£Á£Ò£Ì£Î£Å£×£Ó£¹·î¹æ¤Ç¾Ò²ð¤·¤Æ¤¤¤Þ¤¹¡£

¡¡¾È²ñÀè¡¡¡§¡¡lab@jarl.or.jp
¡¡
¡¡ºÇ¿·¤Î¾ðÊó¤Ï¥Æ¥ì¥Û¥ó¥µ¡¼¥Ó¥¹¡Ê¡§£°£³¡Ý£³£¹£´£²¡Ý£±£°£°£°¡Ë¤ò¤ªÊ¹¤­¤¯¤À¤µ¤¤¡£
¡¡¡¡¡¡
¡¡¡¡°Ê¸å¤Î±¿ÍѤËÉÕ¤­¤Þ¤·¤Æ¤Ï£±£±·î£¸Æü¡Ê·î¡Ë¤Ë¤ªÃΤ餻¤¤¤¿¤·¤Þ¤¹¡£
 ¡¡¡¡¡¡¡¡
¡¡        ¢£ ¤Õ¤¸£²¹æ¡¿£Æ£Ï¡Ý£²£°/JAS-1£â ¢£  ¡¡   
            
¡¡¡¡¡¡¡¡¡¡¡¡¡¡¡¡¡¡¡¡¡Ö¤Õ¤¸£²¹æ¡×¡¡¸½¶·                                                                                  
             
   JAS-1b/FO-20¡Ê¤Õ¤¸£²¹æ¡Ë¤ÎÉÔ¶ñ¹çȯÀ¸¤Ë¤Ä¤¤¤Æ
    JAS-1b¡Ê¤Õ¤¸£²¹æ¡Ë¤Î£Ã£×¥Æ¥ì¥á¥È¥ê¿®¹æ¤Ë¡¤£±£¹£¹£·Ç¯£±£°·î£±£²Æü£±£²»þ
 ¡Ê£Ê£Ó£Ô¡Ë¤ÎÆüËܾå¶õÄ̲á»þ¡¤£³·å¤Î¿ô»ú¤¬·«¤êÊÖ¤µ¤ì¤ë¤Ï¤º¤¬£³¸Ä¤ÎĹ²»¤Î
  ·«¤êÊÖ¤·¤È¤Ê¤Ã¤Æ¤¤¤ë¤È¤¤¤¦°Û¾ï¤¬È¯¸«¤µ¤ì¤Þ¤·¤¿¡£¤³¤ÎÉÔ¶ñ¹ç¤Ï¼¡¤ÎÄ̲á»þ
  ¤«¤é¤Ï²óÉü¤·¤Æ¤¤¤Þ¤·¤¿¤¬£±£³Æü£±£µ»þ£²£°Ê¬¤ÎÄ̲á»þ¤ËºÆ¤Ó´Ñ¬¤µ¤ì¤Þ¤·¤¿¡£
  ±ÒÀ±¤Î¥¢¥Ê¥í¥°·ÏÃæ·Ñ¥â¡¼¥ÉÆ°ºî¤Ï°Û¾ï¤¬Ìµ¤¯¡¤Àµ¾ï»þ¤Î¥Æ¥ì¥á¥È¥êÆâÍƤ«¤é¤Ï
  ±ÒÀ±¤ÎÆ°ºî¤Ë°Û¾ï¤Ïǧ¤á¤é¤ì¤Þ¤»¤ó¡£½¾¤Ã¤Æ¡¤Ä¾¤Á¤Ë±ÒÀ±¤Î¥ß¥Ã¥·¥ç¥ó¤Ë±Æ¶Á¤¹
  ¤ë¤³¤È¤Ï̵¤¤¤ÈͽÁÛ¤µ¤ì¤Þ¤¹¤Î¤Ç¡¤ÅöÌ̤ϥ¢¥Ê¥í¥°·ÏÃæ·Ñ¥â¡¼¥É¤ò·Ñ³¤·¤Þ¤¹¡£
  ±ÒÀ±¤Ï´û¤ËÂǤÁ¾å¤²¤Æ¤«¤é£·Ç¯£¸¥ö·î¤ò·Ð¤Æ¤ª¤ê¤Þ¤¹¤Î¤Ç¡¤º£¸å¤Ï´Æ»ë¤ò¶¯²½¤¹
  ¤ëͽÄê¤Ç¤¹¡£¥¢¥Þ¥Á¥å¥¢³Æ°Ì¤Î¥ì¥Ý¡¼¥È¤ò¤ªÂÔ¤Á¤·¤Þ¤¹¡¥   
  
  °Ê¾å  http://www.jarl.or.jp/Japanese/3_Fuji/fuji.htm
                                           
   =============   JAS-2 ¡Ê¤Õ¤¸£³¹æ¡Ë¤È¸½ºß¤Þ¤Ç¤Î¾ðÊó   ===========
  
  £Á¡¥ÅÅÏäˤè¤ë¤Õ¤¸£³¹æ¤Î±¿ÍѾðÊó
      ¼ÒÃÄË¡¿ÍÆüËÜ¥¢¥Þ¥Á¥å¥¢Ï¢ÌÁ¤Ë¤è¤ë¥µ¡¼¥Ó¥¹
           £Ô£Å£Ì ¡¥   £°£³¡Ý £³£¹£´£² ¡Ý £±£°£°£°
  £Â¡¥¥¢¥Þ¥Á¥å¥¢ÌµÀþ£Æ£Á£Ø¥µ¡¼¥Ó¥¹
      £Ê£Á£Ò£Ì¤Ë¤è¤ë¤Õ¤¸£³¹æ¤Îµ°Æ»¾ðÊó¡Ê¥ª¡¼¥Ó¥Ã¥È¥«¥ì¥ó¥À¡¼¡Ë
         £Æ£Á£Ø £Î£ï¡¥  £°£³¡Ý £³£²£³£³ ¡Ý£°£°£µ£µ
  £Ã¡¥£×£×£×¥Ö¥é¥¦¥¶¤Ç¾ðÊó¤ò´Êñ¤Ë¸«¤ì¤ë¿Í¤Î¤¿¤á¤Ë£Ê£Á£Ó¡Ý£²
     ¤Õ¤¸£³¹æ¤Î±ÒÀ±¤È¤·¤Æ¤Î±¿ÍѤµ¤ì¤ë¤Þ¤Ç¤Î̾Á°¡Ë¤Î³µÍס¢ÂǤÁ¾å¤²
     ¤Þ¤Ç¤Î¾õ¶·¡¢±¿ÍÑÃæ¤Ë¤ª¤±¤ë¾õ¶·¤òÀâÌÀ¤·¤¿¥Û¡¼¥à¥Ú¡¼¥¸¤ò¾Ò²ð¤·
     ¤Æ¤ª¤­¤Þ¤¹¡¥
    ­¡ ¼ÒÃÄË¡¿ÍÆüËÜ¥¢¥Þ¥Á¥å¥¢ÌµÀþÏ¢ÌÁ¡Ê£Ê£Á£Ò£Ì¡Ë¤Î¥Û¡¼¥à¥Ú¡¼¥¸

          http://www.jarl.or.jp/Japanese/3_Fuji
 
    ­¢ ±§Ã賫ȯ»ö¶ÈÃġʣΣÁ£Ó£Ä£Á¡Ë¥Û¡¼¥à¥Ú¡¼¥¸ 
          http://www.nasda.go.jp/
         ÂǾ夲±ÒÀ±¡¡¡§Ãϵå´Ñ¬¥×¥é¥Ã¥È¥Õ¥©¡¼¥àµ»½Ñ±ÒÀ±¡ÊADEOS¡Ë 
                       ¥¢¥Þ¥Á¥å¥¢±ÒÀ±£³¹æ(JAS-2)
          http://yyy.tksc.nasda.go.jp/Home/Press/Press-j/jas-2_j.html        

  £Ä¡¥£Ê£Á£Í£Ó£Á£Ô¤Ë¤è¤ëµ°Æ»¾ðÊó¤Î³èÍÑ
        JAMSAT¤Î¥Û¡¼¥à¥Ú¡¼¥¸¤Þ¤¿¤Ïjamsat¡Ýkeps¤Îµ°Æ»Í×ÁǤè¤ê
      ±ÒÀ±¤Îµ°Æ»¾ðÊó¤òÆÀ¤ë¡¥
     £Ê£Á£Í£Ó£Á£Ô¥Û¡¼¥à¥Ú¡¼¥¸
               £Õ£Ò£Ì    http://www.jamsat.or.jp
       ¾åµ­¥Û¡¼¥à¥Ú¡¼¥¸¤Ç¤Ï³ÆÃϤǹԤï¤ì¤ë¥¢¥Þ¥Á¥å¥¢ÄÌ¿®±ÒÀ±¤Ë´Ø¤¹¤ë
      ¥ß¥å¡¼¥Æ¥£¥ó¥°¤Î¤ªÃΤ餻¤äÀ¤³¦¤Î¥¢¥Þ¥Á¥å¥¢±ÒÀ±¤Ë´Ø¤¹¤ë¾ðÊó¤¬
      ËþºÜ¤µ¤ì¤Æ¤¤¤Þ¤¹¡¥
   
 =========================================================================
       £Ê£Á£Í£Ó£Á£Ô¤Î¥á¥ó¥Ð¡¼¤Î¤´¶¨ÎϤˤè¤ê£Ê£È£¶£Í£Í£Å¡Ê¹â»³ ½¨Â¤¡Ë¤¬
    ¼¹É®¡¦ÊÔ½¸¤òôÅö¤·¤Æ¤ª¤ê¤Þ¤¹¡¥¤´»ØŦ¤Î°Õ¸«¡¢µ¿Ìä¤ä¤³¤Î¤è¤¦¤Ë¤·¤¿¤é
    ¤È¤¤¤¦¥¢¥¤¥Ç¥¢¤¬¤¢¤ê¤Þ¤·¤¿¤é¾®¤µ¤Ê¤³¤È¤Ç¤â¤«¤Þ¤¤¤Þ¤»¤ó¤Î¤Çµ¤·Ú¤Ë²¼
    µ­¥¢¥É¥ì¥¹¤Þ¤Ç¤´Ï¢Íí¤¯¤À¤µ¤¤¡¥£ê£á£í£ó£á£ô¡Ý£î£å£÷£ó¤«¤é£ê£á£ó£²
    £é£î£æ£ï¤Ø¤ÎžºÜ¤ò£Ê£È£´£Ð£È£×¶Éºä°æ¤µ¤ó¤ËôÅö¤·¤Æ夤¤Æ¤ª¤ê¤Þ¤¹¡¥
                    E-mail : jh6mme@jamsat.or.jp : jh4phw@jamsat.or.jp
 ===============================   £Å£Î£Ä  ===============================